TimeEDT,TemperatureF,Dew PointF,Humidity,Sea Level PressureIn,VisibilityMPH,Wind Direction,Wind SpeedMPH,Gust SpeedMPH,PrecipitationIn,Events,Conditions,WindDirDegrees,DateUTC
1:53 AM,66.9,63.0,87,29.95,8.0,Calm,Calm,-,N/A,,Clear,0,2012-10-07 05:53:00
3:53 AM,64.9,63.0,93,29.94,7.0,Calm,Calm,-,N/A,,Clear,0,2012-10-07 07:53:00
4:53 AM,64.0,62.1,93,29.94,5.0,Calm,Calm,-,N/A,,Clear,0,2012-10-07 08:53:00
5:53 AM,64.0,62.1,93,29.96,4.0,Calm,Calm,-,N/A,,Clear,0,2012-10-07 09:53:00
6:53 AM,63.0,61.0,93,29.97,4.0,Calm,Calm,-,N/A,,Clear,0,2012-10-07 10:53:00
7:53 AM,63.0,62.1,97,29.98,3.0,Calm,Calm,-,N/A,,Clear,0,2012-10-07 11:53:00
8:53 AM,66.9,63.0,87,30.01,7.0,NE,3.5,-,N/A,,Clear,40,2012-10-07 12:53:00
9:01 AM,68.0,62.6,83,30.02,7.0,Variable,3.5,-,N/A,,Partly Cloudy,0,2012-10-07 13:01:00
9:22 AM,68.0,62.6,83,30.02,8.0,Variable,3.5,-,N/A,,Mostly Cloudy,0,2012-10-07 13:22:00
9:53 AM,69.1,62.1,78,30.02,10.0,Variable,4.6,-,N/A,,Mostly Cloudy,0,2012-10-07 13:53:00
10:05 AM,69.8,62.6,78,30.02,10.0,Variable,3.5,-,N/A,,Scattered Clouds,0,2012-10-07 14:05:00
10:53 AM,71.1,61.0,70,30.02,10.0,Calm,Calm,-,N/A,,Clear,0,2012-10-07 14:53:00
11:53 AM,73.9,62.1,66,30.00,10.0,Calm,Calm,-,N/A,,Clear,0,2012-10-07 15:53:00
1:53 PM,78.1,64.0,62,29.97,10.0,NNE,3.5,-,N/A,,Clear,20,2012-10-07 17:53:00
2:53 PM,80.1,64.9,60,29.95,10.0,Calm,Calm,-,N/A,,Scattered Clouds,0,2012-10-07 18:53:00
3:53 PM,82.0,64.9,56,29.95,10.0,Variable,4.6,-,N/A,,Scattered Clouds,0,2012-10-07 19:53:00
4:53 PM,81.0,64.0,56,29.96,10.0,Variable,4.6,-,N/A,,Partly Cloudy,0,2012-10-07 20:53:00
5:53 PM,78.1,64.0,62,29.98,10.0,Variable,3.5,-,N/A,,Partly Cloudy,0,2012-10-07 21:53:00
6:53 PM,73.0,62.1,68,30.00,10.0,Variable,4.6,-,N/A,,Overcast,0,2012-10-07 22:53:00
7:53 PM,68.0,60.1,76,30.03,10.0,Variable,6.9,-,N/A,,Mostly Cloudy,0,2012-10-07 23:53:00
8:41 PM,66.2,59.0,78,30.06,10.0,Variable,6.9,-,N/A,,Overcast,0,2012-10-08 00:41:00
8:53 PM,66.0,59.0,78,30.06,10.0,Variable,5.8,-,N/A,,Overcast,0,2012-10-08 00:53:00
9:53 PM,63.0,55.9,78,30.09,10.0,Variable,6.9,-,N/A,,Scattered Clouds,0,2012-10-08 01:53:00
10:20 PM,62.6,55.4,77,30.10,10.0,Calm,Calm,-,N/A,,Mostly Cloudy,0,2012-10-08 02:20:00
10:29 PM,62.6,53.6,72,30.10,10.0,NE,6.9,-,N/A,,Mostly Cloudy,50,2012-10-08 02:29:00
10:53 PM,63.0,53.1,70,30.10,10.0,Variable,4.6,-,N/A,,Mostly Cloudy,0,2012-10-08 02:53:00
11:53 PM,60.1,52.0,75,30.11,10.0,Variable,6.9,-,N/A,,Overcast,0,2012-10-08 03:53:00